Location: Unspecified
(0.0000°N, 0.0000°E)
Time: 16:28:13
(UTC+00:00)

CZ-3C DEB - Pass Details

Date: 10 March 2026
Orbit: 717 x 38360 km, 18.5° (Epoch: 25 March)

Event Time Altitude Azimuth Distance (km) Brightness Sun altitude
Exits shadow 02:39:58 77° 137° (SE) 3,371 ? -52.4°
Maximum altitude 11:49:23 66° 47° (NE) 23,449 ? 83.4°
Drops below altitude 10° 13:18:53 10° 96° (E) 8,673 ? 72.4°
Sets 13:22:39 0° 99° (E) 8,594 ? 71.5°
